Location: Colle Santa Colomba
(42.0333°N, 12.5667°E)
Time: 03:42:20
(UTC+00:00)

Cosmos 1825 - Pass Details

Date: 25 October 2021
Orbit: 501 x 504 km, 82.5° (Epoch: 28 November)

Event Time Altitude Azimuth Distance (km) Brightness Sun altitude
Rises 17:38:07 0° 3° (N) 2,606 5.7 -16.4°
Reaches altitude 10° 17:40:28 10° 16° (NNE) 1,717 4.7 -16.9°
Enters shadow 17:41:29 16° 26° (NNE) 1,381 4.1 -17.1°
